Atlanta, MI (49709)

4:33 PM EST on February 06, 2016 (GMT -0500)
Moon Lk | | Change Station
CLOSE
Current Station
Personal Weather Station
Location: Lewiston, MI
Elevation: 1240 ft
Nearby Weather Stations

Elev 1240 ft 44.84 °N, 84.26 °W | Updated 12 seconds ago

Overcast
Overcast
28.6 °F
Feels Like 29 °F
N
0.0
Wind Variable Wind from WSW
Gusts 0.2 mph

Today
High -- | Low -- °F
--% Chance of Precip.
Yesterday
High -- | Low -- °F
Precip. -- in
Pressure 30.09 in
Visibility 4.0 miles
Clouds Overcast 700 ft
Windchill 29 °F
Dew Point 25 °F
Humidity 86%
Rainfall 0.00 in
Snow Depth Not available.
7:50 AM 5:51 PM
Waning Crescent, 4% visible
METAR KGLR 062053Z AUTO 25013KT 4SM BR OVC007 M03/M04 A3003 RMK AO2 SLP189 60000 T10281044 55004
Pressure 30.09 in
Visibility 4.0 miles
Clouds Overcast 700 ft
Windchill 29 °F
Dew Point 25 °F
Humidity 86%
Rainfall 0.00 in
Snow Depth Not available.
7:50 AM 5:51 PM
Waning Crescent, 4% visible
METAR KGLR 062053Z AUTO 25013KT 4SM BR OVC007 M03/M04 A3003 RMK AO2 SLP189 60000 T10281044 55004

10-Day Weather Forecast

Almanac

Astronomy

Feb. 06, 2016 Rise Set
Actual Time
Civil Twilight
Nautical Twilight
Astronomical Twilight
Moon
Length of Visible Light
Length of Day
Tomorrow will be .
, % of the Moon is Illuminated

Today's Extremes

State Highs State Lows

Community

WunderPhotos

Upload Photos

1,891,052 photos uploaded!

WunderBlog® & News

Nearby

Air Quality

  Air Quality AQ Index Pollutant
Not available.

Snow Depth

Station Depth Elevation

Earthquake Activity

City Distance Mag. Time & Date
Minimum magnitude displayed is 2.5.

Coastal Water Temperatures

Place Temperature

Stations

Nearby Weather Stations

Station Location Temp. Windchill Dew Point Humidity Wind Precip. Elev Updated Type
                   

Watches & Warnings

There are currently no watches in effect.